| time (UTC) | temp C | wind direction | speed KPH | gust KPH | rain 1hr cm | rain 24hr cm | rain mn cm | humidity % | barometer mb |
| 20260905223622 | 27 | 210 | 0.0 | 0.0 | 0.00 | 0.00 | 0.00 | 32 | 1029.1 |
| 20260905223118 | 28 | 216 | 0.0 | 1.6 | 0.00 | 0.00 | 0.00 | 32 | 1029.3 |
| 20260905222619 | 28 | 243 | 0.0 | 0.0 | 0.00 | 0.00 | 0.00 | 33 | 1029.4 |
| 20260905222113 | 28 | 220 | 0.0 | 0.0 | 0.00 | 0.00 | 0.00 | 32 | 1029.5 |
| 20260905221609 | 28 | 23 | 3.2 | 3.2 | 0.00 | 0.00 | 0.00 | 32 | 1029.7 |
| 20260905221106 | 27 | 229 | 1.6 | 1.6 | 0.00 | 0.00 | 0.00 | 32 | 1029.7 |
| 20260905220601 | 27 | 237 | 3.2 | 4.8 | 0.00 | 0.00 | 0.00 | 34 | 1029.7 |
| 20260905220057 | 26 | 223 | 4.8 | 4.8 | 0.00 | 0.00 | 0.00 | 34 | 1029.8 |
| 20260905215556 | 27 | 30 | 6.4 | 9.7 | 0.00 | 0.00 | 0.00 | 34 | 1029.8 |
| 20260905215052 | 27 | 218 | 4.8 | 4.8 | 0.00 | 0.00 | 0.00 | 34 | 1029.8 |
| 20260905214548 | 26 | 149 | 0.0 | 1.6 | 0.00 | 0.00 | 0.00 | 34 | 1029.9 |
| 20260905214043 | 27 | 216 | 0.0 | 0.0 | 0.00 | 0.00 | 0.00 | 34 | 1030.0 |
| 20260905213538 | 26 | 193 | 8.0 | 11.3 | 0.00 | 0.00 | 0.00 | 34 | 1029.9 |
| 20260905213034 | 26 | 323 | 8.0 | 11.3 | 0.00 | 0.00 | 0.00 | 34 | 1030.0 |
| 20260905212534 | 26 | 253 | 8.0 | 12.9 | 0.00 | 0.00 | 0.00 | 34 | 1030.3 |
| 20260905212028 | 26 | 48 | 4.8 | 8.0 | 0.00 | 0.00 | 0.00 | 35 | 1030.3 |
| 20260905211523 | 26 | 32 | 1.6 | 3.2 | 0.00 | 0.00 | 0.00 | 35 | 1030.2 |
| 20260905211019 | 26 | 228 | 1.6 | 1.6 | 0.00 | 0.00 | 0.00 | 35 | 1030.3 |
| 20260905210515 | 26 | 50 | 3.2 | 4.8 | 0.00 | 0.00 | 0.00 | 35 | 1030.3 |
| 20260905210015 | 25 | 76 | 1.6 | 1.6 | 0.00 | 0.00 | 0.00 | 36 | 1030.5 |
| 20260905205514 | 25 | 229 | 3.2 | 3.2 | 0.00 | 0.00 | 0.00 | 35 | 1030.4 |
| 20260905205013 | 26 | 25 | 8.0 | 9.7 | 0.00 | 0.00 | 0.00 | 35 | 1030.7 |
| 20260905204509 | 26 | 337 | 1.6 | 1.6 | 0.00 | 0.00 | 0.00 | 34 | 1030.4 |
| 20260905204008 | 27 | 210 | 0.0 | 1.6 | 0.00 | 0.00 | 0.00 | 34 | 1030.4 |
| 20260905203503 | 27 | 202 | 9.7 | 12.9 | 0.00 | 0.00 | 0.00 | 33 | 1030.7 |
| 20260905202958 | 27 | 43 | 8.0 | 11.3 | 0.00 | 0.00 | 0.00 | 33 | 1030.2 |
| 20260905202453 | 27 | 94 | 1.6 | 4.8 | 0.00 | 0.00 | 0.00 | 34 | 1030.8 |
| 20260905201944 | 26 | 160 | 4.8 | 4.8 | 0.00 | 0.00 | 0.00 | 34 | 1030.5 |
| 20260905201439 | 26 | 13 | 3.2 | 3.2 | 0.00 | 0.00 | 0.00 | 34 | 1030.5 |
| 20260905200938 | 27 | 259 | 4.8 | 11.3 | 0.00 | 0.00 | 0.00 | 33 | 1030.4 |
| 20260905200435 | 26 | 32 | 1.6 | 1.6 | 0.00 | 0.00 | 0.00 | 34 | 1030.5 |
| 20260905195933 | 25 | 3 | 6.4 | 8.0 | 0.00 | 0.00 | 0.00 | 35 | 1030.4 |
| 20260905195428 | 26 | 242 | 6.4 | 9.7 | 0.00 | 0.00 | 0.00 | 35 | 1030.7 |
| 20260905194924 | 26 | 176 | 6.4 | 11.3 | 0.00 | 0.00 | 0.00 | 36 | 1030.7 |
| 20260905194423 | 26 | 86 | 4.8 | 12.9 | 0.00 | 0.00 | 0.00 | 36 | 1030.8 |
| 20260905193923 | 26 | 36 | 9.7 | 9.7 | 0.00 | 0.00 | 0.00 | 35 | 1030.8 |
| 20260905193418 | 25 | 207 | 6.4 | 9.7 | 0.00 | 0.00 | 0.00 | 36 | 1030.5 |
| 20260905192913 | 26 | 153 | 6.4 | 9.7 | 0.00 | 0.00 | 0.00 | 36 | 1030.7 |
| 20260905192409 | 26 | 356 | 6.4 | 9.7 | 0.00 | 0.00 | 0.00 | 36 | 1030.7 |
| 20260905191908 | 26 | 34 | 12.9 | 14.5 | 0.00 | 0.00 | 0.00 | 35 | 1030.7 |
| 20260905191407 | 26 | 28 | 4.8 | 9.7 | 0.00 | 0.00 | 0.00 | 34 | 1030.8 |
| 20260905190902 | 26 | 292 | 4.8 | 8.0 | 0.00 | 0.00 | 0.00 | 35 | 1031.0 |
| 20260905190354 | 26 | 77 | 3.2 | 4.8 | 0.00 | 0.00 | 0.00 | 35 | 1030.7 |
| 20260905185853 | 26 | 120 | 8.0 | 9.7 | 0.00 | 0.00 | 0.00 | 35 | 1030.8 |
| 20260905185349 | 25 | 114 | 8.0 | 11.3 | 0.00 | 0.00 | 0.00 | 36 | 1030.9 |
| 20260905184848 | 25 | 157 | 4.8 | 4.8 | 0.00 | 0.00 | 0.00 | 37 | 1030.8 |
| 20260905184347 | 25 | 172 | 4.8 | 9.7 | 0.00 | 0.00 | 0.00 | 36 | 1031.0 |
| 20260905183845 | 26 | 171 | 4.8 | 4.8 | 0.00 | 0.00 | 0.00 | 35 | 1030.9 |
| 20260905183341 | 26 | 83 | 4.8 | 8.0 | 0.00 | 0.00 | 0.00 | 34 | 1030.8 |
| 20260905182836 | 25 | 306 | 8.0 | 16.1 | 0.00 | 0.00 | 0.00 | 35 | 1030.7 |
| 20260905182335 | 25 | 223 | 3.2 | 4.8 | 0.00 | 0.00 | 0.00 | 36 | 1030.9 |
| 20260905181831 | 25 | 295 | 9.7 | 12.9 | 0.00 | 0.00 | 0.00 | 35 | 1030.8 |
| 20260905181330 | 25 | 31 | 6.4 | 8.0 | 0.00 | 0.00 | 0.00 | 35 | 1030.8 |
| 20260905180829 | 25 | 39 | 3.2 | 3.2 | 0.00 | 0.00 | 0.00 | 35 | 1030.8 |
| 20260905180325 | 25 | 128 | 6.4 | 9.7 | 0.00 | 0.00 | 0.00 | 35 | 1031.0 |
| 20260905175819 | 25 | 5 | 4.8 | 9.7 | 0.00 | 0.00 | 0.00 | 35 | 1031.0 |
| 20260905175314 | 25 | 223 | 3.2 | 3.2 | 0.00 | 0.00 | 0.00 | 35 | 1031.0 |
| 20260905174809 | 25 | 133 | 4.8 | 8.0 | 0.00 | 0.00 | 0.00 | 35 | 1030.9 |
| 20260905174305 | 26 | 121 | 3.2 | 8.0 | 0.00 | 0.00 | 0.00 | 34 | 1031.3 |
| 20260905173801 | 27 | 148 | 4.8 | 4.8 | 0.00 | 0.00 | 0.00 | 33 | 1030.9 |
| 20260905173257 | 27 | 237 | 1.6 | 1.6 | 0.00 | 0.00 | 0.00 | 34 | 1031.0 |
| 20260905172756 | 27 | 143 | 8.0 | 9.7 | 0.00 | 0.00 | 0.00 | 33 | 1030.8 |
| 20260905172254 | 27 | 66 | 6.4 | 9.7 | 0.00 | 0.00 | 0.00 | 34 | 1030.9 |
| 20260905171751 | 27 | 114 | 3.2 | 3.2 | 0.00 | 0.00 | 0.00 | 33 | 1030.7 |
| 20260905171248 | 27 | 184 | 3.2 | 3.2 | 0.00 | 0.00 | 0.00 | 33 | 1031.0 |
| 20260905170743 | 26 | 144 | 1.6 | 3.2 | 0.00 | 0.00 | 0.00 | 35 | 1031.0 |
| 20260905170239 | 25 | 67 | 9.7 | 11.3 | 0.00 | 0.00 | 0.00 | 35 | 1030.9 |
| 20260905165738 | 24 | 322 | 0.0 | 1.6 | 0.00 | 0.00 | 0.00 | 36 | 1031.0 |
| 20260905165234 | 25 | 58 | 1.6 | 1.6 | 0.00 | 0.00 | 0.00 | 38 | 1031.0 |
| 20260905164733 | 25 | 97 | 3.2 | 3.2 | 0.00 | 0.00 | 0.00 | 36 | 1031.0 |
| 20260905164228 | 25 | 198 | 0.0 | 0.0 | 0.00 | 0.00 | 0.00 | 37 | 1030.9 |
| 20260905163725 | 24 | 224 | 4.8 | 8.0 | 0.00 | 0.00 | 0.00 | 37 | 1030.9 |
| 20260905163220 | 25 | 267 | 4.8 | 4.8 | 0.00 | 0.00 | 0.00 | 36 | 1030.9 |
| 20260905162717 | 24 | 89 | 1.6 | 1.6 | 0.00 | 0.00 | 0.00 | 36 | 1031.0 |
| 20260905162216 | 24 | 118 | 3.2 | 4.8 | 0.00 | 0.00 | 0.00 | 36 | 1030.8 |
| 20260905161711 | 23 | 272 | 3.2 | 3.2 | 0.00 | 0.00 | 0.00 | 37 | 1030.9 |
| 20260905161209 | 24 | 54 | 1.6 | 3.2 | 0.00 | 0.00 | 0.00 | 36 | 1030.9 |
| 20260905160708 | 23 | 276 | 4.8 | 4.8 | 0.00 | 0.00 | 0.00 | 37 | 1030.9 |
| 20260905160202 | 23 | 147 | 8.0 | 9.7 | 0.00 | 0.00 | 0.00 | 37 | 1030.8 |
| 20260905155701 | 23 | 89 | 3.2 | 3.2 | 0.00 | 0.00 | 0.00 | 38 | 1031.0 |
| 20260905155201 | 23 | 25 | 6.4 | 8.0 | 0.00 | 0.00 | 0.00 | 39 | 1031.0 |
| 20260905154650 | 23 | 17 | 6.4 | 8.0 | 0.00 | 0.00 | 0.00 | 38 | 1031.0 |
| 20260905154145 | 23 | 343 | 3.2 | 3.2 | 0.00 | 0.00 | 0.00 | 39 | 1031.2 |
| 20260905153641 | 22 | 1 | 9.7 | 11.3 | 0.00 | 0.00 | 0.00 | 39 | 1030.8 |
| 20260905153136 | 22 | 204 | 4.8 | 4.8 | 0.00 | 0.00 | 0.00 | 40 | 1030.8 |
| 20260905152631 | 22 | 348 | 1.6 | 3.2 | 0.00 | 0.00 | 0.00 | 41 | 1031.0 |
| 20260905152125 | 22 | 49 | 4.8 | 8.0 | 0.00 | 0.00 | 0.00 | 41 | 1030.8 |
| 20260905151620 | 21 | 24 | 3.2 | 3.2 | 0.00 | 0.00 | 0.00 | 42 | 1030.9 |
| 20260905151116 | 21 | 341 | 1.6 | 1.6 | 0.00 | 0.00 | 0.00 | 44 | 1030.9 |
| 20260905150606 | 20 | 56 | 4.8 | 4.8 | 0.00 | 0.00 | 0.00 | 46 | 1030.7 |
| 20260905145556 | 20 | 116 | 4.8 | 4.8 | 0.00 | 0.00 | 0.00 | 48 | 1030.9 |
| 20260905145055 | 19 | 23 | 1.6 | 1.6 | 0.00 | 0.00 | 0.00 | 51 | 1030.9 |
| 20260905144551 | 18 | 220 | 0.0 | 0.0 | 0.00 | 0.00 | 0.00 | 53 | 1030.8 |
| 20260905144049 | 17 | 218 | 0.0 | 0.0 | 0.00 | 0.00 | 0.00 | 54 | 1031.2 |
| 20260905143543 | 17 | 211 | 0.0 | 0.0 | 0.00 | 0.00 | 0.00 | 56 | 1031.0 |
| 20260905143038 | 16 | 189 | 1.6 | 1.6 | 0.00 | 0.00 | 0.00 | 58 | 1031.0 |
| 20260905142537 | 15 | 206 | 0.0 | 0.0 | 0.00 | 0.00 | 0.00 | 60 | 1031.4 |
| 20260905142032 | 15 | 223 | 0.0 | 0.0 | 0.00 | 0.00 | 0.00 | 61 | 1031.0 |
| 20260905141527 | 14 | 219 | 0.0 | 0.0 | 0.00 | 0.00 | 0.00 | 62 | 1031.0 |
| 20260905141024 | 13 | 214 | 0.0 | 0.0 | 0.00 | 0.00 | 0.00 | 64 | 1030.9 |
| 20260905140524 | 13 | 213 | 0.0 | 0.0 | 0.00 | 0.00 | 0.00 | 66 | 1031.3 |
| 20260905140023 | 13 | 197 | 1.6 | 1.6 | 0.00 | 0.00 | 0.00 | 65 | 1031.2 |
| 20260905135518 | 12 | 178 | 1.6 | 3.2 | 0.00 | 0.00 | 0.00 | 67 | 1031.0 |
| 20260905135013 | 13 | 215 | 0.0 | 0.0 | 0.00 | 0.00 | 0.00 | 65 | 1030.9 |
| 20260905134508 | 12 | 213 | 0.0 | 0.0 | 0.00 | 0.00 | 0.00 | 65 | 1030.8 |
| 20260905134007 | 12 | 195 | 0.0 | 1.6 | 0.00 | 0.00 | 0.00 | 66 | 1030.8 |
| 20260905133502 | 11 | 208 | 0.0 | 0.0 | 0.00 | 0.00 | 0.00 | 68 | 1030.7 |
| 20260905133001 | 11 | 226 | 0.0 | 0.0 | 0.00 | 0.00 | 0.00 | 68 | 1030.8 |
| 20260905132457 | 11 | 185 | 3.2 | 3.2 | 0.00 | 0.00 | 0.00 | 70 | 1030.7 |
| 20260905131951 | 10 | 219 | 0.0 | 0.0 | 0.00 | 0.00 | 0.00 | 71 | 1030.7 |
| 20260905131447 | 11 | 196 | 1.6 | 1.6 | 0.00 | 0.00 | 0.00 | 70 | 1030.9 |
| 20260905130942 | 10 | 201 | 0.0 | 0.0 | 0.00 | 0.00 | 0.00 | 71 | 1030.4 |
| 20260905130441 | 10 | 214 | 0.0 | 0.0 | 0.00 | 0.00 | 0.00 | 72 | 1030.8 |
| 20260905125941 | 10 | 208 | 0.0 | 0.0 | 0.00 | 0.00 | 0.00 | 71 | 1030.7 |
| 20260905125436 | 10 | 181 | 0.0 | 1.6 | 0.00 | 0.00 | 0.00 | 71 | 1030.7 |
| 20260905124932 | 10 | 228 | 1.6 | 1.6 | 0.00 | 0.00 | 0.00 | 72 | 1030.7 |
| 20260905124428 | 10 | 215 | 0.0 | 0.0 | 0.00 | 0.00 | 0.00 | 71 | 1030.4 |
| 20260905123928 | 10 | 217 | 0.0 | 0.0 | 0.00 | 0.00 | 0.00 | 71 | 1030.5 |
| 20260905123425 | 10 | 221 | 0.0 | 0.0 | 0.00 | 0.00 | 0.00 | 71 | 1030.4 |
| 20260905122920 | 10 | 193 | 0.0 | 1.6 | 0.00 | 0.00 | 0.00 | 71 | 1030.4 |
| 20260905122419 | 10 | 199 | 0.0 | 0.0 | 0.00 | 0.00 | 0.00 | 71 | 1030.5 |
| 20260905121915 | 11 | 220 | 0.0 | 0.0 | 0.00 | 0.00 | 0.00 | 69 | 1030.2 |
| 20260905121410 | 10 | 217 | 0.0 | 0.0 | 0.00 | 0.00 | 0.00 | 71 | 1030.0 |
| 20260905120909 | 10 | 170 | 1.6 | 3.2 | 0.00 | 0.00 | 0.00 | 71 | 1030.4 |
| 20260905120404 | 10 | 214 | 0.0 | 0.0 | 0.00 | 0.00 | 0.00 | 72 | 1030.2 |
| 20260905115859 | 10 | 213 | 0.0 | 0.0 | 0.00 | 0.00 | 0.00 | 73 | 1030.3 |
| 20260905115358 | 10 | 215 | 0.0 | 0.0 | 0.00 | 0.00 | 0.00 | 73 | 1030.3 |
| 20260905114853 | 10 | 213 | 0.0 | 0.0 | 0.00 | 0.00 | 0.00 | 74 | 1030.4 |
| 20260905114352 | 10 | 180 | 1.6 | 1.6 | 0.00 | 0.00 | 0.00 | 73 | 1030.2 |
| 20260905113851 | 10 | 218 | 0.0 | 0.0 | 0.00 | 0.00 | 0.00 | 73 | 1030.4 |
| 20260905113348 | 10 | 220 | 0.0 | 0.0 | 0.00 | 0.00 | 0.00 | 74 | 1030.3 |
| 20260905112842 | 10 | 212 | 0.0 | 0.0 | 0.00 | 0.00 | 0.00 | 74 | 1030.3 |
| 20260905112337 | 10 | 215 | 0.0 | 0.0 | 0.00 | 0.00 | 0.00 | 74 | 1030.3 |
| 20260905111833 | 10 | 205 | 0.0 | 0.0 | 0.00 | 0.00 | 0.00 | 72 | 1030.2 |
| 20260905111332 | 10 | 206 | 1.6 | 1.6 | 0.00 | 0.00 | 0.00 | 73 | 1030.2 |
| 20260905110827 | 10 | 187 | 1.6 | 1.6 | 0.00 | 0.00 | 0.00 | 73 | 1029.9 |
| 20260905110325 | 10 | 190 | 1.6 | 1.6 | 0.00 | 0.00 | 0.00 | 74 | 1030.3 |
| 20260905105821 | 10 | 183 | 1.6 | 1.6 | 0.00 | 0.00 | 0.00 | 73 | 1029.9 |
| 20260905105320 | 10 | 184 | 1.6 | 1.6 | 0.00 | 0.00 | 0.00 | 74 | 1030.3 |
| 20260905104814 | 10 | 216 | 0.0 | 0.0 | 0.00 | 0.00 | 0.00 | 74 | 1030.0 |
| 20260905104311 | 10 | 180 | 1.6 | 1.6 | 0.00 | 0.00 | 0.00 | 73 | 1030.0 |
| 20260905103810 | 10 | 211 | 0.0 | 0.0 | 0.00 | 0.00 | 0.00 | 73 | 1030.2 |
| 20260905103307 | 10 | 215 | 0.0 | 0.0 | 0.00 | 0.00 | 0.00 | 73 | 1030.0 |
| 20260905102802 | 11 | 220 | 0.0 | 0.0 | 0.00 | 0.00 | 0.00 | 71 | 1029.8 |
| 20260905102258 | 10 | 194 | 1.6 | 1.6 | 0.00 | 0.00 | 0.00 | 72 | 1029.8 |
| 20260905101753 | 11 | 217 | 0.0 | 0.0 | 0.00 | 0.00 | 0.00 | 72 | 1029.8 |
| 20260905101251 | 11 | 217 | 0.0 | 0.0 | 0.00 | 0.00 | 0.00 | 70 | 1029.8 |
| 20260905100746 | 11 | 219 | 0.0 | 0.0 | 0.00 | 0.00 | 0.00 | 70 | 1029.8 |
| 20260905100242 | 11 | 178 | 0.0 | 0.0 | 0.00 | 0.00 | 0.00 | 71 | 1029.9 |
| 20260905095741 | 11 | 222 | 0.0 | 0.0 | 0.00 | 0.00 | 0.00 | 71 | 1029.8 |
| 20260905095240 | 11 | 159 | 3.2 | 3.2 | 0.00 | 0.00 | 0.00 | 71 | 1030.0 |
| 20260905094735 | 11 | 229 | 4.8 | 4.8 | 0.00 | 0.00 | 0.00 | 70 | 1029.9 |
| 20260905094230 | 11 | 189 | 0.0 | 1.6 | 0.00 | 0.00 | 0.00 | 71 | 1029.8 |
| 20260905093725 | 11 | 154 | 3.2 | 3.2 | 0.00 | 0.00 | 0.00 | 70 | 1029.9 |
| 20260905093221 | 11 | 213 | 0.0 | 0.0 | 0.00 | 0.00 | 0.00 | 71 | 1029.7 |
| 20260905092716 | 11 | 194 | 1.6 | 1.6 | 0.00 | 0.00 | 0.00 | 70 | 1029.9 |
| 20260905092211 | 11 | 211 | 0.0 | 0.0 | 0.00 | 0.00 | 0.00 | 71 | 1029.8 |
| 20260905091711 | 11 | 220 | 0.0 | 0.0 | 0.00 | 0.00 | 0.00 | 69 | 1029.7 |
| 20260905091206 | 11 | 174 | 1.6 | 1.6 | 0.00 | 0.00 | 0.00 | 69 | 1029.8 |
| 20260905090705 | 11 | 203 | 0.0 | 0.0 | 0.00 | 0.00 | 0.00 | 69 | 1029.5 |
| 20260905090201 | 11 | 191 | 1.6 | 1.6 | 0.00 | 0.00 | 0.00 | 68 | 1029.7 |
| 20260905085659 | 11 | 210 | 0.0 | 0.0 | 0.00 | 0.00 | 0.00 | 69 | 1029.8 |
| 20260905085155 | 11 | 204 | 0.0 | 0.0 | 0.00 | 0.00 | 0.00 | 68 | 1029.9 |
| 20260905084654 | 11 | 196 | 0.0 | 0.0 | 0.00 | 0.00 | 0.00 | 68 | 1029.7 |
| 20260905084149 | 11 | 211 | 0.0 | 0.0 | 0.00 | 0.00 | 0.00 | 68 | 1029.8 |
| 20260905083644 | 11 | 187 | 1.6 | 1.6 | 0.00 | 0.00 | 0.00 | 67 | 1029.8 |
| 20260905083140 | 11 | 210 | 0.0 | 1.6 | 0.00 | 0.00 | 0.00 | 69 | 1029.8 |
| 20260905082636 | 12 | 229 | 0.0 | 0.0 | 0.00 | 0.00 | 0.00 | 68 | 1029.8 |
| 20260905082131 | 12 | 190 | 1.6 | 1.6 | 0.00 | 0.00 | 0.00 | 65 | 1029.8 |
| 20260905081631 | 12 | 195 | 1.6 | 1.6 | 0.00 | 0.00 | 0.00 | 66 | 1029.5 |
| 20260905081126 | 12 | 211 | 0.0 | 0.0 | 0.00 | 0.00 | 0.00 | 66 | 1030.0 |
| 20260905080620 | 12 | 196 | 1.6 | 1.6 | 0.00 | 0.00 | 0.00 | 64 | 1029.7 |
| 20260905080115 | 12 | 219 | 0.0 | 0.0 | 0.00 | 0.00 | 0.00 | 65 | 1029.7 |
| 20260905075614 | 12 | 186 | 1.6 | 1.6 | 0.00 | 0.00 | 0.00 | 64 | 1029.9 |
| 20260905075108 | 13 | 221 | 0.0 | 0.0 | 0.00 | 0.00 | 0.00 | 63 | 1029.9 |
| 20260905074607 | 13 | 187 | 1.6 | 1.6 | 0.00 | 0.00 | 0.00 | 62 | 1029.8 |
| 20260905074103 | 12 | 179 | 1.6 | 1.6 | 0.00 | 0.00 | 0.00 | 63 | 1029.5 |
| 20260905073558 | 12 | 183 | 1.6 | 1.6 | 0.00 | 0.00 | 0.00 | 63 | 1029.9 |
| 20260905073054 | 12 | 193 | 1.6 | 1.6 | 0.00 | 0.00 | 0.00 | 64 | 1029.9 |
| 20260905072553 | 12 | 218 | 0.0 | 0.0 | 0.00 | 0.00 | 0.00 | 64 | 1029.7 |
| 20260905072048 | 12 | 211 | 0.0 | 0.0 | 0.00 | 0.00 | 0.00 | 64 | 1029.8 |
| 20260905071545 | 12 | 208 | 0.0 | 0.0 | 0.00 | 0.00 | 0.00 | 64 | 1029.8 |
| 20260905071040 | 12 | 199 | 0.0 | 0.0 | 0.00 | 0.00 | 0.00 | 64 | 1029.8 |
| 20260905070536 | 12 | 217 | 0.0 | 0.0 | 0.00 | 0.00 | 0.00 | 63 | 1029.8 |
| 20260905070031 | 12 | 205 | 0.0 | 0.0 | 0.00 | 0.00 | 0.00 | 63 | 1029.8 |
| 20260905065528 | 12 | 187 | 1.6 | 1.6 | 0.00 | 0.00 | 0.00 | 64 | 1029.9 |
| 20260905065025 | 12 | 196 | 0.0 | 0.0 | 0.00 | 0.00 | 0.00 | 64 | 1029.7 |
| 20260905064525 | 12 | 169 | 3.2 | 3.2 | 0.00 | 0.00 | 0.00 | 64 | 1029.9 |
| 20260905064020 | 12 | 208 | 0.0 | 0.0 | 0.00 | 0.00 | 0.00 | 64 | 1029.8 |
| 20260905063519 | 13 | 233 | 3.2 | 3.2 | 0.00 | 0.00 | 0.00 | 61 | 1029.8 |
| 20260905063016 | 13 | 177 | 3.2 | 3.2 | 0.00 | 0.00 | 0.00 | 61 | 1029.7 |
| 20260905062515 | 12 | 201 | 1.6 | 1.6 | 0.00 | 0.00 | 0.00 | 63 | 1029.9 |
| 20260905062010 | 12 | 212 | 0.0 | 0.0 | 0.00 | 0.00 | 0.00 | 63 | 1029.8 |
| 20260905061505 | 13 | 210 | 0.0 | 0.0 | 0.00 | 0.00 | 0.00 | 61 | 1029.8 |
| 20260905061004 | 13 | 216 | 0.0 | 0.0 | 0.00 | 0.00 | 0.00 | 61 | 1029.7 |
| 20260905060500 | 13 | 194 | 1.6 | 1.6 | 0.00 | 0.00 | 0.00 | 61 | 1029.7 |
| 20260905055954 | 13 | 199 | 0.0 | 0.0 | 0.00 | 0.00 | 0.00 | 61 | 1029.7 |
| 20260905055454 | 13 | 210 | 0.0 | 0.0 | 0.00 | 0.00 | 0.00 | 59 | 1029.3 |
| 20260905054949 | 13 | 212 | 0.0 | 0.0 | 0.00 | 0.00 | 0.00 | 60 | 1029.7 |
| 20260905054444 | 13 | 213 | 0.0 | 0.0 | 0.00 | 0.00 | 0.00 | 61 | 1029.9 |
| 20260905053945 | 13 | 211 | 0.0 | 0.0 | 0.00 | 0.00 | 0.00 | 61 | 1029.7 |
| 20260905053439 | 13 | 216 | 0.0 | 0.0 | 0.00 | 0.00 | 0.00 | 60 | 1029.5 |
| 20260905052935 | 14 | 218 | 0.0 | 0.0 | 0.00 | 0.00 | 0.00 | 60 | 1029.7 |
| 20260905052434 | 14 | 190 | 1.6 | 1.6 | 0.00 | 0.00 | 0.00 | 59 | 1029.5 |
| 20260905051934 | 14 | 210 | 0.0 | 0.0 | 0.00 | 0.00 | 0.00 | 59 | 1029.7 |
| 20260905051430 | 14 | 194 | 1.6 | 3.2 | 0.00 | 0.00 | 0.00 | 59 | 1029.5 |
| 20260905050927 | 14 | 229 | 0.0 | 0.0 | 0.00 | 0.00 | 0.00 | 60 | 1029.8 |
| 20260905050423 | 14 | 159 | 3.2 | 3.2 | 0.00 | 0.00 | 0.00 | 60 | 1029.7 |
| 20260905045919 | 15 | 246 | 0.0 | 0.0 | 0.00 | 0.00 | 0.00 | 60 | 1029.7 |
| 20260905045414 | 15 | 209 | 0.0 | 0.0 | 0.00 | 0.00 | 0.00 | 59 | 1029.4 |
| 20260905044909 | 15 | 195 | 1.6 | 1.6 | 0.00 | 0.00 | 0.00 | 59 | 1029.7 |
| 20260905044404 | 15 | 218 | 0.0 | 0.0 | 0.00 | 0.00 | 0.00 | 59 | 1029.8 |
| 20260905043903 | 15 | 204 | 0.0 | 0.0 | 0.00 | 0.00 | 0.00 | 58 | 1029.5 |
| 20260905043357 | 15 | 205 | 0.0 | 0.0 | 0.00 | 0.00 | 0.00 | 58 | 1029.8 |
| 20260905042852 | 15 | 203 | 0.0 | 1.6 | 0.00 | 0.00 | 0.00 | 58 | 1029.5 |
| 20260905042346 | 16 | 220 | 0.0 | 0.0 | 0.00 | 0.00 | 0.00 | 58 | 1029.5 |
| 20260905041841 | 16 | 197 | 1.6 | 1.6 | 0.00 | 0.00 | 0.00 | 57 | 1029.5 |
| 20260905041338 | 16 | 192 | 1.6 | 1.6 | 0.00 | 0.00 | 0.00 | 56 | 1029.7 |
| 20260905040838 | 16 | 183 | 1.6 | 1.6 | 0.00 | 0.00 | 0.00 | 56 | 1029.5 |
| 20260905040336 | 17 | 211 | 0.0 | 0.0 | 0.00 | 0.00 | 0.00 | 54 | 1029.8 |
| 20260905035836 | 17 | 201 | 0.0 | 0.0 | 0.00 | 0.00 | 0.00 | 54 | 1029.7 |
| 20260905035332 | 17 | 218 | 0.0 | 0.0 | 0.00 | 0.00 | 0.00 | 54 | 1029.7 |
| 20260905034828 | 17 | 177 | 1.6 | 3.2 | 0.00 | 0.00 | 0.00 | 53 | 1029.5 |
| 20260905034324 | 18 | 228 | 0.0 | 0.0 | 0.00 | 0.00 | 0.00 | 53 | 1029.4 |
| 20260905033822 | 18 | 188 | 0.0 | 0.0 | 0.00 | 0.00 | 0.00 | 52 | 1029.4 |
| 20260905033318 | 19 | 221 | 0.0 | 0.0 | 0.00 | 0.00 | 0.00 | 50 | 1029.7 |
| 20260905032817 | 20 | 223 | 0.0 | 0.0 | 0.00 | 0.00 | 0.00 | 49 | 1029.5 |
| 20260905032313 | 19 | 224 | 1.6 | 1.6 | 0.00 | 0.00 | 0.00 | 51 | 1029.5 |
| 20260905031807 | 19 | 221 | 1.6 | 1.6 | 0.00 | 0.00 | 0.00 | 50 | 1029.5 |
| 20260905031303 | 20 | 244 | 1.6 | 1.6 | 0.00 | 0.00 | 0.00 | 49 | 1029.3 |
| 20260905030758 | 20 | 236 | 0.0 | 0.0 | 0.00 | 0.00 | 0.00 | 48 | 1029.4 |
| 20260905030254 | 20 | 227 | 1.6 | 1.6 | 0.00 | 0.00 | 0.00 | 48 | 1029.3 |
| 20260905025748 | 20 | 222 | 1.6 | 1.6 | 0.00 | 0.00 | 0.00 | 48 | 1029.3 |
| 20260905025244 | 20 | 175 | 4.8 | 4.8 | 0.00 | 0.00 | 0.00 | 47 | 1029.1 |
| 20260905024739 | 19 | 227 | 1.6 | 3.2 | 0.00 | 0.00 | 0.00 | 48 | 1029.1 |
| 20260905024235 | 18 | 243 | 0.0 | 0.0 | 0.00 | 0.00 | 0.00 | 49 | 1029.4 |
| 20260905023735 | 18 | 200 | 1.6 | 1.6 | 0.00 | 0.00 | 0.00 | 49 | 1029.1 |
| 20260905023230 | 18 | 211 | 0.0 | 0.0 | 0.00 | 0.00 | 0.00 | 50 | 1028.9 |
| 20260905022729 | 18 | 207 | 0.0 | 1.6 | 0.00 | 0.00 | 0.00 | 50 | 1029.0 |
| 20260905022225 | 18 | 216 | 0.0 | 0.0 | 0.00 | 0.00 | 0.00 | 50 | 1029.0 |
| 20260905021725 | 18 | 214 | 0.0 | 0.0 | 0.00 | 0.00 | 0.00 | 50 | 1029.0 |
| 20260905021220 | 18 | 181 | 3.2 | 3.2 | 0.00 | 0.00 | 0.00 | 50 | 1028.6 |
| 20260905020715 | 18 | 190 | 1.6 | 1.6 | 0.00 | 0.00 | 0.00 | 50 | 1028.8 |
| 20260905020210 | 18 | 218 | 0.0 | 0.0 | 0.00 | 0.00 | 0.00 | 50 | 1028.8 |
| 20260905015709 | 18 | 214 | 0.0 | 0.0 | 0.00 | 0.00 | 0.00 | 49 | 1028.8 |
| 20260905015209 | 19 | 215 | 0.0 | 0.0 | 0.00 | 0.00 | 0.00 | 49 | 1028.8 |
| 20260905014707 | 20 | 237 | 0.0 | 1.6 | 0.00 | 0.00 | 0.00 | 47 | 1028.3 |
| 20260905014203 | 20 | 193 | 1.6 | 1.6 | 0.00 | 0.00 | 0.00 | 46 | 1028.5 |
| 20260905013659 | 20 | 218 | 0.0 | 0.0 | 0.00 | 0.00 | 0.00 | 46 | 1028.3 |
| 20260905013154 | 20 | 218 | 0.0 | 0.0 | 0.00 | 0.00 | 0.00 | 46 | 1028.6 |
| 20260905012650 | 20 | 219 | 0.0 | 0.0 | 0.00 | 0.00 | 0.00 | 44 | 1028.1 |
| 20260905012146 | 21 | 217 | 0.0 | 0.0 | 0.00 | 0.00 | 0.00 | 44 | 1028.3 |
| 20260905011642 | 21 | 226 | 1.6 | 1.6 | 0.00 | 0.00 | 0.00 | 44 | 1028.3 |
| 20260905011137 | 21 | 217 | 0.0 | 0.0 | 0.00 | 0.00 | 0.00 | 42 | 1028.5 |
| 20260905010632 | 22 | 217 | 0.0 | 0.0 | 0.00 | 0.00 | 0.00 | 40 | 1028.4 |
| 20260905010128 | 23 | 218 | 0.0 | 0.0 | 0.00 | 0.00 | 0.00 | 39 | 1028.5 |
| 20260905005624 | 23 | 217 | 1.6 | 1.6 | 0.00 | 0.00 | 0.00 | 38 | 1028.1 |
| 20260905005120 | 23 | 211 | 0.0 | 0.0 | 0.00 | 0.00 | 0.00 | 37 | 1028.4 |
| 20260905004619 | 23 | 197 | 1.6 | 1.6 | 0.00 | 0.00 | 0.00 | 37 | 1028.1 |
| 20260905004115 | 24 | 216 | 0.0 | 0.0 | 0.00 | 0.00 | 0.00 | 37 | 1028.3 |
| 20260905003610 | 24 | 21 | 3.2 | 3.2 | 0.00 | 0.00 | 0.00 | 36 | 1028.3 |
| 20260905003106 | 24 | 70 | 4.8 | 4.8 | 0.00 | 0.00 | 0.00 | 36 | 1028.4 |
| 20260905002601 | 25 | 85 | 1.6 | 3.2 | 0.00 | 0.00 | 0.00 | 35 | 1028.4 |
| 20260905002056 | 25 | 2 | 3.2 | 3.2 | 0.00 | 0.00 | 0.00 | 35 | 1028.3 |
| 20260905001551 | 25 | 46 | 4.8 | 4.8 | 0.00 | 0.00 | 0.00 | 35 | 1028.3 |
| 20260905001051 | 25 | 308 | 6.4 | 8.0 | 0.00 | 0.00 | 0.00 | 34 | 1028.0 |
| 20260905000546 | 25 | 15 | 9.7 | 11.3 | 0.00 | 0.00 | 0.00 | 34 | 1028.1 |
| 20260905000042 | 26 | 359 | 4.8 | 8.0 | 0.00 | 0.00 | 0.00 | 33 | 1028.5 |
| 20260904235536 | 26 | 219 | 3.2 | 3.2 | 0.00 | 0.00 | 0.00 | 33 | 1028.1 |
| 20260904235036 | 26 | 272 | 4.8 | 9.7 | 0.00 | 0.00 | 0.00 | 33 | 1028.3 |
| 20260904234536 | 25 | 32 | 6.4 | 9.7 | 0.00 | 0.00 | 0.00 | 34 | 1028.1 |
| 20260904234032 | 26 | 12 | 3.2 | 4.8 | 0.00 | 0.00 | 0.00 | 32 | 1028.0 |
| 20260904233527 | 26 | 176 | 3.2 | 3.2 | 0.00 | 0.00 | 0.00 | 31 | 1028.1 |
| 20260904233023 | 26 | 355 | 3.2 | 3.2 | 0.00 | 0.00 | 0.00 | 31 | 1028.1 |
| 20260904232520 | 26 | 222 | 4.8 | 4.8 | 0.00 | 0.00 | 0.00 | 31 | 1027.8 |
| 20260904232016 | 26 | 238 | 4.8 | 4.8 | 0.00 | 0.00 | 0.00 | 31 | 1028.0 |
| 20260904231512 | 25 | 241 | 0.0 | 1.6 | 0.00 | 0.00 | 0.00 | 31 | 1028.0 |
| 20260904231006 | 26 | 100 | 4.8 | 8.0 | 0.00 | 0.00 | 0.00 | 31 | 1028.0 |
| 20260904230500 | 26 | 7 | 11.3 | 14.5 | 0.00 | 0.00 | 0.00 | 31 | 1027.8 |
| 20260904225955 | 26 | 7 | 11.3 | 14.5 | 0.00 | 0.00 | 0.00 | 31 | 1027.8 |
| 20260904225453 | 25 | 357 | 4.8 | 8.0 | 0.00 | 0.00 | 0.00 | 31 | 1027.9 |
| 20260904224952 | 25 | 176 | 1.6 | 1.6 | 0.00 | 0.00 | 0.00 | 32 | 1027.9 |
| 20260904224448 | 26 | 241 | 4.8 | 8.0 | 0.00 | 0.00 | 0.00 | 31 | 1027.9 |